This is the latest recevied weather packets stored in our database for station/object K7ZQU-7. If no packets are shown the sender has not sent any weather packets the latest 10 day(s).
| Time | Temp. | Humidity | Pressure | Rain* | Wind** | Luminosity | Snow |
|---|---|---|---|---|---|---|---|
| 1777862456 | 17.22° C | 35% | 1012.5 hPa | 0 mm | 0 m/s | - | - |
| 1777862157 | 17.22° C | 34% | 1012.5 hPa | 0 mm | 0.45 m/s, 53° | - | - |
| 1777861858 | 17.22° C | 34% | 1012.5 hPa | 0 mm | 0 m/s | - | - |
| 1777861559 | 17.22° C | 33% | 1012.6 hPa | 0 mm | 0.45 m/s, 4° | - | - |
| 1777861258 | 17.22° C | 33% | 1012.6 hPa | 0 mm | 0 m/s | - | - |
| 1777860959 | 17.22° C | 34% | 1012.6 hPa | 0 mm | 0 m/s | - | - |
| 1777860660 | 17.78° C | 33% | 1012.5 hPa | 0 mm | 0.45 m/s, 6° | - | - |
| 1777859761 | 17.78° C | 32% | 1012.7 hPa | 0 mm | 1.34 m/s, 357° | - | - |
| 1777859462 | 17.78° C | 31% | 1012.6 hPa | 0 mm | 1.34 m/s, 91° | - | - |
| 1777859163 | 17.78° C | 32% | 1012.7 hPa | 0 mm | 0.89 m/s, 27° | - | - |
| 1777858864 | 17.78° C | 33% | 1012.7 hPa | 0 mm | 0 m/s | - | - |
| 1777858565 | 17.78° C | 32% | 1012.7 hPa | 0 mm | 0 m/s | - | - |
| 1777858263 | 17.78° C | 32% | 1012.7 hPa | 0 mm | 0 m/s | - | - |
| 1777857965 | 18.33° C | 31% | 1012.7 hPa | 0 mm | 0 m/s | - | - |
| 1777857666 | 18.33° C | 30% | 1012.7 hPa | 0 mm | 0.45 m/s, 31° | - | - |
| 1777857367 | 18.89° C | 30% | 1012.7 hPa | 0 mm | 0 m/s | - | - |
| 1777856766 | 19.44° C | 28% | 1012.8 hPa | 0 mm | 0.45 m/s, 183° | - | - |
| 1777856488 | 19.44° C | 28% | 1012.8 hPa | 0 mm | 2.24 m/s, 65° | - | - |
| 1777855571 | 19.44° C | 29% | 1012.8 hPa | 0 mm | 1.34 m/s, 14° | - | - |
| 1777855269 | 18.89° C | 30% | 1013 hPa | 0 mm | 1.79 m/s, 343° | - | - |
| 1777854970 | 19.44° C | 29% | 1012.8 hPa | 0 mm | 0.89 m/s, 145° | - | - |
| 1777854671 | 19.44° C | 28% | 1012.8 hPa | 0 mm | 0.89 m/s, 41° | - | - |
| 1777853772 | 20° C | 24% | 1012.8 hPa | 0 mm | 0.89 m/s, 176° | - | - |
| 1777852875 | 20° C | 26% | 1012.8 hPa | 0 mm | 0.45 m/s, 14° | - | - |
| 1777851377 | 20.56° C | 26% | 1013 hPa | 0 mm | 2.24 m/s, 162° | - | - |
* Rain latest hour (hover to see other rain measurements)
** Current wind speed in m/s (hover to see current wind gust speed)